Leadville, CO

11:08 AM MDT on July 21, 2017 (GMT -0600)
Lake County

Weather History for KLXV - September, 2013

Change the Weather History Date:

Sunday, September 8, 2013

  Actual Average Record
Temperature  
Mean Temperature 55 °F -  
Max Temperature 69 °F 63 °F 74 °F (1988)
Min Temperature 41 °F 33 °F 25 °F (1985)
Degree Days  
Heating Degree Days 10 17  
Month to date heating degree days 68 128  
Since 1 July heating degree days 670 850  
Cooling Degree Days 0 0  
Month to date cooling degree days 0 0  
Year to date cooling degree days 0 0  
Growing Degree Days 5 (Base 50)    
Moisture  
Dew Point 40 °F    
Average Humidity 59    
Maximum Humidity 89    
Minimum Humidity 28    
Precipitation  
Precipitation T in 0.04 in 0.38 in (2006)
Month to date precipitation 0.96 0.36  
Year to date precipitation 12.60 9.31  
Sea Level Pressure  
Sea Level Pressure 29.90 in    
Wind  
Wind Speed 5 mph (ESE)    
Max Wind Speed 35 mph    
Max Gust Speed 40 mph    
Visibility 10 miles    
Events Rain    
T = Trace of Precipitation, MM = Missing Value Source: NWS Daily Summary

Daily Weather History Graph

Daily Weather History Graph

Search for Another Location

Airport or City:

Trip Planner

Search our weather history database for the weather conditions in past years. The results will help you decide how hot, cold, wet, or windy it might be!

Date:

Astronomy

Sep. 08, 2013 Rise Set
Actual Time 6:40 AM MDT 7:24 PM MDT
Civil Twilight 6:13 AM MDT 7:51 PM MDT
Nautical Twilight 5:41 AM MDT 8:23 PM MDT
Astronomical Twilight 5:08 AM MDT 8:56 PM MDT
Moon 9:59 AM MDT (9/8) 9:03 PM MDT (9/8)
Length of Visible Light 13h 38m
Length of Day
12h 43m
Waxing Crescent, 11% of the Moon is Illuminated
Sep 8
Waxing Crescent
Sep 12
First Quarter
Sep 19
Full
Sep 26
Last Quarter
Oct 4
New

Hourly Weather History & Observations

Time (MDT) Temp. Windchill Dew Point Humidity Pressure Visibility Wind Dir Wind Speed Gust Speed Precip Events Conditions
12:53 AM 45.0 °F 42.6 °F 39.9 °F 82% 29.94 in 10.0 mi NE 4.6 mph - N/A   Clear
1:53 AM 44.1 °F - 39.9 °F 85% 29.95 in 10.0 mi Calm Calm - N/A   Clear
2:53 AM 46.9 °F - 39.9 °F 77% 29.93 in 10.0 mi Calm Calm - N/A   Partly Cloudy
3:53 AM 46.0 °F 42.5 °F 39.9 °F 79% 29.94 in 10.0 mi ENE 6.9 mph - N/A   Mostly Cloudy
4:53 AM 46.9 °F - 39.0 °F 74% 29.99 in 10.0 mi ENE 5.8 mph - N/A   Clear
5:53 AM 42.1 °F - 39.0 °F 89% 30.04 in 10.0 mi Calm Calm - N/A   Clear
6:53 AM 41.0 °F - 37.0 °F 86% 30.03 in 10.0 mi Calm Calm - N/A   Clear
7:53 AM 48.0 °F - 39.0 °F 71% 30.01 in 10.0 mi Calm Calm - N/A   Clear
8:53 AM 52.0 °F - 41.0 °F 66% 29.97 in 10.0 mi Calm Calm - N/A   Clear
9:53 AM 57.9 °F - 42.1 °F 56% 29.93 in 10.0 mi North 3.5 mph - N/A   Clear
10:53 AM 62.1 °F - 42.1 °F 48% 29.91 in 10.0 mi South 3.5 mph - N/A   Clear
11:53 AM 64.9 °F - 37.0 °F 36% 29.89 in 10.0 mi South 5.8 mph - N/A   Clear
12:53 PM 66.9 °F - 36.0 °F 32% 29.86 in 10.0 mi SW 9.2 mph - N/A   Clear
1:53 PM 69.1 °F - 35.1 °F 29% 29.84 in 10.0 mi South 11.5 mph 18.4 mph N/A   Scattered Clouds
2:53 PM 64.9 °F - 35.1 °F 33% 29.83 in 10.0 mi SSE 11.5 mph 21.9 mph N/A   Mostly Cloudy
3:53 PM 66.9 °F - 32.0 °F 27% 29.78 in 10.0 mi South 8.1 mph - N/A   Mostly Cloudy
4:53 PM 66.0 °F - 37.0 °F 34% 29.77 in 10.0 mi South 11.5 mph - N/A   Mostly Cloudy
5:53 PM 60.1 °F - 39.0 °F 46% 29.86 in 10.0 mi SE 4.6 mph 40.3 mph 0.00 in Rain Light Rain
6:53 PM 55.9 °F - 45.0 °F 67% 29.88 in 10.0 mi Calm Calm - 0.00 in Rain Light Rain
7:53 PM 55.9 °F - 39.9 °F 55% 29.85 in 10.0 mi ESE 3.5 mph - 0.00 in   Overcast
8:53 PM 55.9 °F - 44.1 °F 64% 29.84 in 10.0 mi NNW 9.2 mph 21.9 mph 0.00 in   Overcast
9:53 PM 53.1 °F - 44.1 °F 71% 29.83 in 10.0 mi NNW 6.9 mph - N/A   Mostly Cloudy
10:53 PM 50.0 °F - 45.0 °F 83% 29.83 in 10.0 mi NNW 4.6 mph - N/A   Scattered Clouds
11:53 PM 48.9 °F - 44.1 °F 83% 29.82 in 10.0 mi North 4.6 mph - N/A   Mostly Cloudy